Satellite-Ground Cal/Val Site Overpasses Predictions

Prediction of Satellite NPP Overpassing Cal/Val Site: Antarctic Dome C

Ground Cal/Val Site Location: Latitude: -75.10, Longitude: 123.35; Satellite-Ground Site NADIR distance within 100 km.

Table of predicted overpasses for the next 14.0 days since TLE Epoch: 9/8/2024
Interval Starting Time Ending Time Minimum Distance Time Minimum Distance (km)
1 09/08/2024 14:48:56 09/08/2024 14:49:25 09/08/2024 14:49:10 12.56
2 09/10/2024 07:31:43 09/10/2024 07:32:12 09/10/2024 07:31:57 4.48
3 09/13/2024 14:55:05 09/13/2024 14:55:33 09/13/2024 14:55:19 23.33
4 09/14/2024 14:36:21 09/14/2024 14:36:36 09/14/2024 14:36:29 83.97
5 09/15/2024 07:37:53 09/15/2024 07:38:20 09/15/2024 07:38:06 38.55
6 09/16/2024 07:19:04 09/16/2024 07:19:25 09/16/2024 07:19:14 71.63
7 09/18/2024 15:01:15 09/18/2024 15:01:39 09/18/2024 15:01:27 59.61
8 09/19/2024 14:42:23 09/19/2024 14:42:48 09/19/2024 14:42:36 49.80
9 09/20/2024 07:44:02 09/20/2024 07:44:22 09/20/2024 07:44:12 72.84
